Date,TemperatureHighF,TemperatureAvgF,TemperatureLowF,DewpointHighF,DewpointAvgF,DewpointLowF,HumidityHigh,HumidityAvg,HumidityLow,PressureMaxIn,PressureMinIn,WindSpeedMaxMPH,WindSpeedAvgMPH,GustSpeedMaxMPH,PrecipitationSumIn
2013-1-2,27.2,23.8,21.3,17.1,13.9,12.0,70,65,61,30.26,30.11,4,2,13,0.00
2013-1-3,30.3,24.5,18.8,22.1,16.5,12.5,77,71,65,30.27,30.18,8,2,16,0.00
2013-1-4,33.1,28.1,25.5,23.9,21.0,19.4,80,75,67,30.21,30.10,11,7,26,0.01
2013-1-5,34.4,29.8,24.9,25.7,22.2,19.6,80,73,66,30.40,30.16,13,4,29,0.00
2013-1-6,38.4,35.2,29.8,29.7,27.2,24.0,82,73,66,30.22,30.05,5,2,13,0.08
2013-1-7,35.6,32.3,28.2,29.6,26.0,23.2,82,77,72,30.45,30.17,6,2,18,0.08
2013-1-8,44.1,34.9,28.8,32.7,28.2,23.4,85,77,63,30.44,30.37,2,0,9,0.18
2013-1-9,45.6,40.4,36.3,41.6,34.2,30.4,89,78,67,30.41,30.24,10,3,27,0.16
2013-1-10,43.4,38.2,34.4,32.0,29.1,27.2,77,70,60,30.61,30.38,8,3,28,0.00
2013-1-11,39.8,36.1,34.1,39.0,32.2,27.9,97,86,74,30.51,30.12,4,1,16,0.22
2013-1-12,56.5,46.5,37.2,54.0,45.4,36.4,100,96,85,30.19,30.11,4,0,9,0.00
2013-1-13,54.8,49.4,44.4,54.5,48.9,43.9,100,98,96,30.12,29.96,3,1,12,0.01
2013-1-14,55.4,45.4,33.6,55.4,42.5,31.8,100,90,75,30.30,29.96,9,2,23,0.25
2013-1-15,34.4,32.4,29.2,32.5,30.4,27.9,96,92,84,30.36,30.17,4,0,9,0.12
2013-1-16,36.9,31.4,28.5,35.0,30.5,27.5,97,96,88,30.17,29.88,4,0,9,0.01
2013-1-17,36.9,33.1,30.6,33.3,28.3,25.5,89,82,66,30.15,30.01,5,2,15,0.06
2013-1-18,30.7,25.7,20.3,26.1,16.6,9.8,84,68,57,30.49,30.07,8,3,27,0.00
2013-1-19,48.3,32.5,23.1,33.0,25.7,19.7,92,77,55,30.42,29.96,3,1,15,0.00
2013-1-20,47.3,37.0,26.2,33.1,23.6,14.9,79,59,35,30.08,29.83,10,5,30,0.00
2013-1-21,33.3,25.2,18.3,23.5,16.1,8.1,76,68,59,30.09,29.86,10,2,25,0.00
2013-1-22,18.3,10.5,6.8,8.1,-0.7,-3.6,72,60,49,30.32,29.95,12,6,31,0.00
2013-1-23,17.0,10.5,4.7,7.4,0.3,-2.3,81,64,49,30.38,30.18,6,2,17,0.00
2013-1-24,18.8,13.0,8.6,8.5,5.4,-0.1,88,72,53,30.55,30.14,8,3,23,0.00
2013-1-25,15.0,12.0,9.0,11.3,5.4,-0.1,91,75,58,30.55,30.10,4,0,14,0.00
2013-1-26,23.6,19.0,13.3,19.8,16.0,11.2,92,88,79,30.48,30.12,4,0,11,0.00
2013-1-27,28.7,22.6,15.6,21.7,16.7,12.4,89,78,67,30.62,30.48,3,0,10,0.05
2013-1-28,43.7,30.4,25.0,43.2,28.5,21.7,98,93,79,30.51,30.10,3,1,12,0.22
2013-1-29,61.8,54.2,43.7,55.6,50.4,43.2,98,87,78,30.15,29.95,4,2,13,0.02
2013-1-30,61.7,54.3,51.3,59.5,53.1,49.5,100,95,83,29.96,29.23,9,3,27,1.82
2013-1-31,52.1,32.2,22.1,51.8,25.0,11.3,99,75,61,29.86,29.15,16,8,33,0.38
2013-2-1,23.9,17.2,10.5,18.7,9.0,2.9,92,70,60,30.38,29.83,11,5,29,0.00
2013-2-2,21.3,14.6,8.8,19.8,9.5,2.6,94,80,70,30.40,30.07,6,1,19,0.00
2013-2-3,26.1,22.7,19.5,24.4,20.6,15.9,95,91,78,30.07,29.85,8,1,29,0.03
2013-2-4,27.7,22.1,16.3,23.0,15.2,9.3,90,75,65,30.11,29.93,9,3,28,0.00
2013-2-5,33.3,30.0,25.9,30.0,26.9,20.9,94,88,75,29.96,29.88,3,0,7,0.01
2013-2-6,31.6,29.4,25.2,28.9,24.4,18.3,93,82,74,30.37,29.95,7,3,19,0.00
2013-2-7,30.5,26.5,21.3,24.8,20.4,16.3,89,77,70,30.46,30.24,4,1,14,0.00
2013-2-8,34.0,30.0,25.6,33.0,28.0,20.7,97,92,80,30.24,29.81,10,3,26,0.05
2013-2-9,31.2,24.7,19.7,20.9,16.8,14.5,84,72,55,30.43,29.94,15,7,33,0.00
2013-2-10,38.1,29.3,20.1,23.1,17.2,9.8,73,61,47,30.49,30.25,3,1,13,0.00
2013-2-11,51.1,38.7,31.2,46.1,35.2,22.7,98,88,47,30.25,29.73,12,2,28,0.24
2013-2-12,46.2,38.9,31.4,33.2,28.8,25.7,80,67,56,30.00,29.82,10,5,27,0.00
2013-2-13,35.1,31.4,28.4,29.2,26.8,23.7,95,83,73,29.96,29.68,6,2,13,0.00
2013-2-14,41.8,33.3,26.5,32.5,27.8,23.1,96,81,67,30.03,29.79,6,1,15,0.16
2013-2-15,46.9,36.5,30.9,36.5,30.5,26.2,96,79,63,30.06,29.95,6,1,16,0.07
2013-2-16,30.9,27.7,21.9,29.9,24.0,16.1,96,86,70,30.01,29.87,5,1,17,0.03
2013-2-17,23.3,18.8,15.5,16.4,11.4,5.8,81,73,60,30.22,29.86,11,6,34,0.01
2013-2-18,34.7,23.6,12.7,21.3,11.5,5.1,74,60,46,30.40,30.19,9,3,27,0.00
2013-2-19,38.5,33.1,28.8,37.2,26.9,20.5,96,78,58,30.19,29.71,12,3,24,0.13
2013-2-20,28.8,22.1,17.9,21.6,13.9,8.6,79,70,64,30.17,29.83,15,7,40,0.01
2013-2-21,29.4,21.9,16.7,18.7,13.7,9.6,77,70,61,30.38,30.12,10,5,25,0.00
2013-2-22,25.9,23.8,21.4,24.7,19.8,15.3,95,85,72,30.41,30.24,7,2,16,0.00
2013-2-23,41.4,33.5,25.7,40.6,32.6,24.5,97,96,95,30.24,29.85,4,0,9,0.03
2013-2-24,40.6,32.8,24.9,35.1,28.0,19.1,97,83,62,30.12,29.82,8,4,22,0.00
2013-2-25,40.2,30.5,23.8,27.4,22.4,18.1,81,72,58,30.26,30.11,5,1,15,0.00
2013-2-26,35.5,31.6,27.5,34.7,28.0,22.3,97,87,72,30.25,29.66,10,2,33,1.51
2013-2-27,46.7,38.4,32.0,42.1,34.6,31.2,98,87,66,29.71,29.57,10,3,23,0.09
2013-2-28,38.2,33.8,30.9,33.6,28.7,26.1,89,82,72,29.74,29.64,6,3,15,0.00
2013-3-1,34.6,31.6,27.0,30.7,26.7,21.8,95,82,69,29.91,29.73,5,2,16,0.00
2013-3-2,27.8,25.4,23.3,22.3,20.2,18.6,85,80,71,29.90,29.84,6,3,16,0.00
2013-3-3,32.2,25.4,22.1,22.1,19.1,17.3,90,77,65,29.93,29.83,10,6,26,0.00
2013-3-4,33.4,26.0,20.2,21.6,17.4,13.2,79,70,59,30.07,29.92,10,7,25,0.00
2013-3-5,40.5,31.9,24.0,26.8,21.4,16.9,79,66,43,30.10,29.84,6,2,19,0.00
2013-3-6,32.9,30.6,27.8,32.1,29.5,26.5,97,96,79,30.06,29.67,7,3,29,0.14
2013-3-7,39.7,33.9,28.9,30.6,27.5,23.8,97,78,64,30.19,30.06,8,3,23,0.13
2013-3-8,40.5,34.0,28.2,30.0,26.6,23.2,90,75,64,30.33,30.16,12,5,29,0.00
2013-3-9,54.2,39.4,28.7,34.5,26.6,21.1,76,61,45,30.39,30.30,5,1,16,0.00
2013-3-10,57.1,47.9,40.6,33.0,27.8,23.8,58,46,36,30.33,30.22,3,1,14,0.00
2013-3-11,52.8,45.3,37.8,46.9,39.4,24.7,93,81,44,30.23,29.91,7,2,19,0.00
2013-3-12,52.4,45.0,34.4,49.9,41.4,27.6,97,87,74,29.93,29.75,9,5,28,1.00
2013-3-13,40.2,33.2,26.2,29.6,24.7,18.3,86,71,53,30.05,29.91,10,5,29,0.00
2013-3-14,35.6,29.0,24.1,20.5,17.8,15.3,76,63,49,30.12,30.03,12,8,31,0.00
2013-3-15,48.8,37.6,26.3,36.4,26.2,17.3,75,64,50,30.11,29.82,7,3,17,0.00
2013-3-16,43.9,36.4,30.7,36.1,32.6,29.7,96,86,67,29.94,29.67,6,2,15,0.02
2013-3-17,34.4,31.2,28.9,30.8,26.1,21.9,96,82,66,30.28,29.93,3,1,11,0.02
2013-3-18,29.8,28.3,26.5,28.8,23.9,19.0,96,84,71,30.32,29.91,5,1,16,0.00
2013-3-19,49.5,36.6,29.8,37.6,28.1,15.9,97,75,34,29.93,29.75,12,4,29,0.39
2013-3-20,44.6,34.1,27.0,25.1,19.4,15.5,80,56,37,29.97,29.79,9,5,26,0.00
2013-3-21,29.9,24.5,21.3,24.2,14.1,9.3,79,65,51,29.90,29.77,10,4,26,0.00
2013-3-22,35.3,27.3,20.3,22.3,17.6,11.5,76,67,55,30.04,29.89,8,4,22,0.00
2013-3-23,44.8,33.0,23.5,27.3,22.2,17.8,81,65,48,30.06,29.96,7,3,21,0.00
2013-3-24,35.0,30.8,26.3,27.2,22.4,18.9,87,71,63,30.02,29.66,3,0,15,0.00
2013-3-25,31.6,29.4,27.0,30.3,27.9,25.5,96,94,87,29.72,29.54,3,0,14,0.24
2013-3-26,42.3,33.6,28.0,31.7,28.7,27.0,96,83,57,30.02,29.72,7,3,19,0.17
2013-3-27,40.4,34.4,30.7,32.1,28.0,26.6,89,77,63,30.14,29.99,9,5,24,0.01
2013-3-28,41.0,35.3,32.0,31.1,28.8,27.2,89,77,62,30.25,30.09,9,3,23,0.00
2013-3-29,48.8,40.0,32.8,34.5,29.9,26.0,83,68,49,30.27,30.17,6,2,21,0.00
2013-3-30,52.4,43.1,35.0,31.0,27.9,23.8,75,56,39,30.24,30.13,4,1,14,0.00
2013-3-31,44.2,42.0,38.8,42.9,36.1,25.5,97,81,49,30.13,29.75,4,1,16,0.20
2013-4-1,51.8,41.9,31.8,44.2,34.6,17.5,98,76,53,29.98,29.76,10,4,25,0.02
2013-4-2,39.1,31.6,26.7,22.3,18.0,16.0,67,57,45,30.19,29.98,8,3,22,0.00
2013-4-3,41.1,31.8,26.0,21.9,17.5,12.7,70,56,39,30.40,30.19,9,3,22,0.00
2013-4-4,43.4,33.2,22.7,24.6,16.1,11.5,65,50,37,30.42,30.09,4,0,12,0.00
2013-4-5,57.8,43.8,32.8,35.2,28.5,20.3,89,57,40,30.10,29.86,8,3,21,0.00
2013-4-6,49.4,39.2,29.2,29.0,23.3,20.2,72,54,37,30.32,30.06,5,1,18,0.00
2013-4-7,64.2,49.5,36.1,45.7,36.0,23.3,72,60,50,30.27,29.99,4,2,18,0.00
2013-4-8,74.7,64.0,52.8,53.1,48.2,43.9,73,57,43,30.07,29.94,3,1,11,0.00
2013-4-9,79.0,69.1,60.1,59.5,54.3,49.0,70,60,48,30.07,29.89,6,2,15,0.00
2013-4-10,84.8,74.1,64.7,63.1,57.7,52.6,68,57,45,29.93,29.76,8,3,17,0.00
2013-4-11,78.7,66.3,50.6,62.4,57.0,49.2,95,73,55,29.87,29.72,8,2,22,0.00
2013-4-12,59.9,50.4,45.0,59.6,49.9,42.8,99,98,92,29.77,29.60,9,4,23,0.53
2013-4-13,61.4,51.0,42.3,42.6,37.6,33.5,91,62,44,29.98,29.77,8,3,26,0.00
2013-4-14,59.6,49.5,39.8,40.8,36.4,33.1,78,61,47,30.15,29.98,5,2,16,0.00
2013-4-15,58.4,52.7,48.4,50.9,45.9,38.8,86,78,59,30.27,30.14,4,2,16,0.00
2013-4-16,71.3,58.3,48.8,60.8,53.6,45.5,95,85,68,30.29,30.11,5,2,19,0.00
2013-4-17,63.7,58.9,55.6,60.4,55.4,51.5,100,89,77,30.22,30.11,4,1,12,0.07
2013-4-18,69.0,58.4,52.7,65.8,56.2,51.5,100,93,76,30.22,29.98,5,2,15,0.16
2013-4-19,68.2,59.6,45.9,64.0,57.1,40.7,97,91,82,29.99,29.59,9,4,25,0.57
2013-4-20,51.9,43.8,36.5,40.8,31.6,25.7,82,63,47,30.36,29.73,10,5,26,0.01
2013-4-21,48.6,39.3,29.9,33.5,25.8,19.9,70,59,48,30.60,30.36,3,1,13,0.00
2013-4-22,52.4,41.7,34.1,37.3,32.3,27.4,85,70,52,30.59,30.41,5,1,20,0.00
2013-4-23,53.2,43.0,34.8,44.2,37.5,30.4,91,82,67,30.43,30.13,3,1,15,0.00
2013-4-24,71.6,55.0,44.0,57.5,49.1,39.1,96,82,58,30.14,29.79,11,2,25,0.12
2013-4-25,57.2,46.3,36.8,41.9,34.2,30.6,83,64,43,30.33,29.99,11,3,27,0.00
2013-4-26,58.0,49.1,40.7,37.2,33.4,30.6,75,55,39,30.47,30.32,4,1,11,0.00
2013-4-27,66.1,55.2,44.8,46.2,38.0,30.8,63,53,43,30.43,30.28,3,1,14,0.00
2013-4-28,59.2,51.9,48.7,47.1,42.1,37.0,91,70,54,30.28,30.13,4,1,18,0.09
2013-4-29,54.2,50.2,46.6,53.9,49.4,45.1,99,97,84,30.14,30.06,3,1,15,0.36
2013-4-30,53.3,50.9,49.0,53.0,50.6,48.7,99,99,99,30.31,30.10,3,1,13,0.40
2013-5-1,65.5,53.9,44.3,48.9,41.7,37.0,99,66,41,30.42,30.30,4,1,17,0.01
2013-5-2,66.0,52.9,41.6,49.6,44.5,39.3,93,75,50,30.43,30.32,4,1,15,0.00
2013-5-3,63.4,52.6,43.1,49.3,43.5,38.0,92,72,51,30.39,30.29,5,1,20,0.00
2013-5-4,64.4,50.6,38.8,48.2,42.2,36.7,96,75,51,30.33,30.20,4,1,16,0.00
2013-5-5,60.6,48.0,38.2,46.6,40.8,36.6,95,77,55,30.23,30.15,4,1,20,0.00
2013-5-6,54.7,48.5,41.6,54.0,47.1,39.6,100,95,86,30.19,30.09,5,2,18,0.02
2013-5-7,57.5,54.7,51.5,57.5,54.5,51.2,100,99,98,30.10,29.94,6,2,25,1.97
2013-5-8,64.0,54.9,49.6,58.5,53.6,48.8,100,96,74,30.01,29.92,3,0,14,0.11
2013-5-9,68.4,56.9,47.9,59.8,53.7,47.4,99,90,70,30.02,29.91,4,1,10,0.00
2013-5-10,78.7,64.3,56.5,62.9,57.3,52.0,98,79,54,30.02,29.85,6,0,16,0.84
2013-5-11,67.0,60.3,56.1,65.2,58.6,51.8,100,94,76,29.86,29.72,5,1,13,0.21
2013-5-12,56.2,50.4,43.1,52.1,38.7,29.8,88,65,46,30.01,29.74,8,4,24,0.00
2013-5-13,51.5,44.0,39.2,34.0,29.8,27.3,71,58,42,30.18,30.01,7,2,20,0.00
2013-5-14,56.6,45.7,34.4,41.4,33.1,25.6,75,62,47,30.22,30.07,3,0,15,0.00
2013-5-15,78.7,61.3,48.4,67.3,51.8,37.4,80,71,61,30.07,29.72,3,1,12,0.00
2013-5-16,74.3,68.0,61.6,65.0,60.0,56.1,93,76,63,29.93,29.75,6,1,14,0.00
2013-5-17,76.3,66.1,55.3,62.0,55.0,48.0,94,69,49,30.13,29.92,2,0,12,0.00
2013-5-18,63.5,57.7,53.4,55.8,53.4,49.5,98,86,61,30.21,30.12,2,1,12,0.01
2013-5-19,63.8,58.4,53.6,63.8,58.2,53.0,100,99,98,30.21,30.10,2,0,9,0.03
2013-5-20,75.6,67.0,61.0,69.9,64.9,61.0,100,93,78,30.13,29.98,2,0,9,0.00
2013-5-21,82.0,70.9,62.6,73.5,67.6,62.3,100,90,72,29.98,29.85,1,0,7,0.00
2013-5-22,84.8,71.3,61.5,73.9,67.2,60.6,99,88,60,29.92,29.80,6,0,17,0.31
2013-5-23,73.4,64.3,60.7,68.9,63.0,59.9,99,96,82,29.87,29.72,2,0,6,0.19
2013-5-24,61.1,45.1,42.5,60.5,32.3,-99.9,99,79,73,30.15,29.73,7,-92,28,0.00
2013-5-25,59.2,34.6,39.8,43.0,-7.9,-99.9,85,40,50,30.18,30.10,7,-335,24,0.00
2013-5-26,64.9,53.1,41.6,45.7,39.3,34.6,78,61,45,30.25,30.15,5,1,18,0.00
2013-5-27,62.0,56.0,48.9,49.4,43.6,35.4,82,63,52,30.29,30.18,1,0,7,0.00
2013-5-28,71.8,61.9,53.4,65.4,56.5,46.2,94,83,69,30.21,30.08,3,0,9,0.01
2013-5-29,82.8,71.7,62.2,70.8,65.2,60.8,97,81,56,30.12,30.06,4,1,14,0.00
2013-5-30,85.7,75.5,66.0,72.6,67.0,62.4,90,76,58,30.17,30.08,1,0,8,0.00
2013-5-31,84.0,74.9,65.5,71.1,65.7,62.1,90,74,54,30.12,30.00,2,0,8,0.00
2013-6-1,85.2,75.1,66.5,73.4,67.3,62.8,89,78,62,30.01,29.88,1,0,12,0.00
2013-6-2,76.1,69.0,65.1,71.5,66.0,62.6,98,91,80,29.89,29.81,1,0,7,0.02
2013-6-3,72.2,66.0,58.4,67.9,62.0,53.2,99,88,73,29.96,29.83,3,0,11,0.20
2013-6-4,69.5,59.4,48.3,55.8,48.6,39.8,84,68,54,30.14,29.95,2,0,10,0.00
2013-6-5,72.8,63.8,56.8,61.6,54.3,48.2,81,72,61,30.18,30.04,2,0,11,0.00
2013-6-6,64.0,59.8,57.5,61.3,56.3,49.6,99,89,71,30.06,29.86,3,1,20,0.85
2013-6-7,64.2,61.8,58.9,64.2,61.6,58.3,100,99,98,29.87,29.63,3,1,19,0.54
2013-6-8,61.3,61.2,61.1,61.0,60.9,60.8,99,99,99,29.73,29.72,2,1,8,0.00
2013-6-10,73.1,67.9,64.3,72.5,67.5,64.0,100,99,96,29.98,29.76,3,0,11,0.65
2013-6-11,72.0,66.1,60.5,67.9,64.0,60.2,100,93,83,29.85,29.77,5,1,16,0.00
2013-6-12,80.2,70.7,63.1,71.4,66.2,61.4,96,86,70,29.88,29.78,3,0,14,0.00
2013-6-13,74.8,66.9,61.1,69.2,64.1,55.7,99,91,80,29.81,29.45,7,2,26,0.49
2013-6-14,72.5,63.0,55.5,59.7,55.5,50.9,92,77,58,29.99,29.60,4,1,16,0.00
2013-6-15,74.3,65.6,56.6,63.5,56.6,49.0,92,74,54,30.08,29.98,3,0,11,0.00
2013-6-16,75.2,67.8,63.8,68.5,59.3,48.9,95,75,57,30.03,29.88,3,0,12,0.06
2013-6-17,79.3,70.5,64.1,71.6,65.7,61.4,91,85,72,29.95,29.88,2,0,10,0.00
2013-6-18,71.9,68.6,66.0,69.1,66.4,64.0,97,93,82,29.91,29.77,1,0,6,0.02
2013-6-22,73.8,73.8,73.8,68.3,68.3,68.3,83,83,83,30.25,30.25,0,0,0,0.00
2013-6-24,83.4,73.9,67.5,74.0,69.6,65.6,97,87,68,30.12,30.02,1,0,7,0.13
2013-6-25,79.6,68.6,63.4,73.5,66.6,61.1,97,94,74,30.03,29.88,7,0,21,0.05
2013-6-26,82.0,69.8,62.9,74.6,65.8,60.9,95,88,77,29.92,29.81,2,0,9,0.00
2013-6-27,78.7,71.2,66.7,74.3,68.7,65.6,97,92,83,29.82,29.59,3,1,15,0.02
2013-6-28,81.4,70.7,65.4,72.7,66.7,61.9,96,87,69,29.61,29.47,3,0,12,0.01
2013-6-29,81.0,70.2,62.7,68.2,63.8,59.3,97,81,59,29.70,29.50,2,0,9,0.07
2013-6-30,82.4,72.2,64.3,76.3,69.1,62.8,97,90,76,29.85,29.69,2,0,10,0.12
2013-7-1,76.1,70.6,67.0,72.8,69.1,66.4,99,95,86,29.97,29.82,1,0,10,0.04
2013-7-2,76.5,71.2,68.0,72.8,69.7,67.7,99,95,87,30.15,29.97,1,0,12,0.03
2013-7-3,78.0,71.1,67.8,75.2,70.1,67.5,100,97,89,30.22,30.13,1,0,13,0.05
2013-7-4,82.3,74.7,69.2,76.4,71.7,68.9,99,91,78,30.24,30.15,1,0,9,0.00
2013-7-5,83.1,75.3,69.1,76.4,71.9,68.4,99,90,77,30.20,30.11,1,0,7,0.00
2013-7-6,86.8,76.2,69.4,76.6,71.8,68.2,97,87,68,30.17,30.05,1,0,9,0.00
2013-7-7,85.0,72.2,65.3,77.2,68.9,64.5,99,90,74,30.09,29.98,7,0,21,0.55
2013-7-8,78.7,69.4,64.6,71.7,67.4,63.9,99,94,74,30.11,30.03,2,0,10,0.07
2013-7-9,77.8,71.5,68.0,74.3,69.4,65.9,98,93,87,30.10,30.00,1,0,6,0.04
2013-7-10,79.6,72.9,69.4,75.3,70.5,67.7,97,93,77,30.00,29.84,3,0,7,0.02
2013-7-11,78.0,71.4,66.6,71.3,66.9,61.4,98,86,73,29.92,29.83,3,0,14,0.00
2013-7-12,70.2,65.0,61.0,66.3,62.8,59.9,98,93,72,30.05,29.91,3,1,18,0.59
2013-7-13,77.4,69.9,64.3,73.2,68.3,63.7,99,95,83,30.27,30.04,1,0,14,0.07
2013-7-14,84.1,75.4,69.7,76.0,72.0,69.2,99,90,74,30.34,30.27,2,0,8,0.00
2013-7-15,86.6,76.8,67.9,77.0,71.9,67.3,98,86,66,30.30,30.19,2,0,8,0.00
2013-7-16,87.1,80.3,75.4,76.1,71.9,68.4,86,76,60,30.24,30.17,3,0,13,0.00
2013-7-17,89.6,80.9,74.7,76.3,71.3,67.9,88,73,56,30.21,30.08,3,0,9,0.00
2013-7-18,89.4,81.4,73.8,79.8,74.7,68.5,89,81,65,30.11,29.99,1,0,7,0.00
2013-7-19,89.0,79.2,71.4,79.7,74.3,67.2,95,85,71,30.00,29.84,7,0,20,0.00
2013-7-20,82.2,74.9,68.8,77.5,70.2,66.0,97,86,74,29.90,29.79,6,0,17,0.18
2013-7-21,79.6,73.3,68.4,73.6,69.0,64.8,96,87,79,29.94,29.87,1,0,7,0.01
2013-7-22,82.4,72.7,67.4,75.2,70.4,66.8,98,93,76,29.93,29.74,3,0,9,0.65
2013-7-23,77.7,70.7,67.3,72.8,68.5,66.0,100,93,79,29.76,29.65,4,0,13,0.07
2013-7-24,75.0,68.8,62.3,67.0,62.8,55.0,93,82,66,29.93,29.68,4,1,11,0.00
2013-7-25,71.8,62.7,53.8,62.0,55.9,49.4,94,79,61,30.06,29.91,3,1,14,0.00
2013-7-26,76.8,66.9,59.5,64.7,60.4,57.6,95,81,58,30.11,30.03,3,0,8,0.00
2013-7-27,75.7,68.2,64.0,70.9,65.3,59.3,98,91,77,30.06,29.91,2,0,11,0.23
2013-7-28,78.2,67.9,61.0,70.5,66.0,59.0,99,94,73,30.00,29.88,5,0,16,0.88
2013-7-29,72.6,64.1,57.0,63.0,57.9,54.3,97,81,64,30.18,29.99,3,0,10,0.00
2013-7-30,73.7,64.6,59.0,64.5,58.1,54.7,87,80,65,30.24,30.15,2,0,7,0.00
2013-7-31,75.2,67.9,63.1,68.6,63.9,59.4,98,87,77,30.16,30.00,0,0,6,0.04
2013-8-1,74.5,67.6,63.4,71.5,66.5,62.8,99,96,88,30.00,29.82,2,0,9,0.24
2013-8-2,76.6,68.7,61.1,68.4,63.3,60.0,98,84,64,29.97,29.87,4,0,13,0.01
2013-8-3,67.6,64.9,61.8,65.5,62.3,60.1,98,92,78,29.96,29.92,2,0,6,0.12
2013-8-4,72.2,64.6,56.9,62.4,58.2,53.1,99,81,60,30.04,29.93,5,1,13,0.01
2013-8-5,73.7,64.8,58.1,60.9,56.1,52.6,86,74,58,30.11,30.02,2,0,8,0.00
2013-8-6,70.1,64.0,60.1,67.6,61.7,55.8,99,92,75,30.07,30.00,3,0,13,0.72
2013-8-7,77.6,68.2,63.8,73.7,67.2,63.4,100,97,86,30.07,29.99,2,0,8,0.59
2013-8-8,76.0,70.5,66.2,74.4,70.0,65.6,100,98,92,30.03,29.96,2,0,7,0.14
2013-8-9,76.8,71.8,68.6,74.9,71.3,68.3,100,98,91,29.97,29.86,3,0,13,0.49
2013-8-10,77.0,69.4,64.7,69.1,65.9,62.1,99,89,67,30.09,29.95,2,0,6,0.00
2013-8-11,80.6,71.1,65.6,72.4,65.9,60.9,95,84,71,30.11,30.00,2,0,8,0.00
2013-8-12,79.9,72.4,66.8,71.4,68.3,65.8,100,88,71,30.02,29.91,1,0,7,0.02
2013-8-13,76.6,69.4,63.8,72.0,66.4,58.5,99,91,80,29.91,29.74,4,0,13,0.63
2013-8-14,66.6,59.0,50.9,58.5,51.9,46.6,87,78,66,30.12,29.83,5,1,15,0.00
2013-8-15,70.3,61.2,54.4,59.0,52.2,47.0,85,73,60,30.21,30.11,1,0,6,0.00
2013-8-16,72.7,63.6,55.9,60.3,55.2,51.4,88,75,56,30.21,30.14,0,0,1,0.00
2013-8-17,73.5,65.2,56.8,62.4,57.5,52.6,89,77,63,30.28,30.20,0,0,0,0.00
2013-8-18,65.0,60.9,58.1,61.5,58.5,56.4,97,92,78,30.26,30.18,0,0,0,0.09
2013-8-19,70.4,63.3,57.3,68.1,62.2,56.5,98,96,91,30.19,30.09,0,0,0,0.00
2013-8-20,78.3,69.8,62.5,70.1,65.3,61.9,99,87,67,30.18,30.10,0,0,0,0.00
2013-8-21,81.6,72.7,67.1,75.1,69.3,63.0,98,89,76,30.19,30.05,0,0,0,0.00
2013-8-22,78.7,70.8,64.4,72.4,66.8,62.6,98,87,77,30.08,29.93,0,0,0,0.00
2013-8-23,68.8,66.3,62.1,66.0,63.6,60.3,99,91,84,30.14,29.94,0,0,0,0.12
2013-8-24,75.1,65.9,58.7,63.5,58.5,54.6,98,78,57,30.34,30.14,0,0,2,0.00
2013-8-25,75.7,66.5,59.6,65.5,61.0,55.3,98,83,64,30.41,30.26,0,0,0,0.00
2013-8-26,79.2,68.6,59.6,69.0,63.1,56.8,94,83,67,30.28,29.99,0,0,0,0.00
2013-8-27,82.5,73.0,67.5,74.2,68.7,64.0,95,87,71,30.00,29.88,0,0,0,0.01
2013-8-28,71.1,69.1,67.7,70.0,68.2,67.1,99,97,93,29.92,29.82,0,0,0,0.11
2013-8-29,78.2,70.1,65.3,71.8,67.7,65.0,100,92,77,30.02,29.84,0,0,2,0.01
2013-8-30,81.2,71.4,65.4,72.9,68.6,65.1,99,91,73,30.02,29.87,0,0,2,0.01
2013-8-31,81.8,73.2,67.0,75.2,70.3,66.4,99,91,74,29.89,29.78,0,0,1,0.00
2013-9-1,84.5,73.3,66.6,75.5,70.1,65.4,99,90,71,29.84,29.76,0,0,1,0.06
2013-9-2,82.3,73.0,66.7,74.9,69.9,66.1,99,90,73,29.81,29.71,0,0,2,0.08
2013-9-3,75.4,68.3,60.1,68.2,61.9,53.9,95,81,60,29.96,29.73,0,0,1,0.00
2013-9-4,74.6,63.8,54.5,60.5,55.8,52.1,92,76,54,30.09,29.95,0,0,0,0.00
2013-9-5,73.5,65.2,59.0,64.0,56.7,48.3,90,75,56,30.14,30.02,0,0,0,0.00
2013-9-6,69.4,59.0,50.7,54.1,48.6,43.8,82,69,54,30.26,30.14,0,0,0,0.00
2013-9-7,74.2,63.1,54.4,63.1,55.6,45.9,86,77,63,30.16,29.95,0,0,1,0.00
2013-9-8,77.1,68.1,61.3,68.2,61.4,54.8,94,80,70,30.06,29.91,0,0,1,0.00
2013-9-9,70.6,62.0,54.2,64.3,55.4,46.4,94,79,67,30.20,30.06,0,0,1,0.00
2013-9-10,85.4,73.0,64.2,75.9,69.2,63.6,99,89,72,30.19,30.09,0,0,1,0.00
2013-9-11,87.3,77.5,71.2,77.5,73.0,69.5,95,86,70,30.15,29.99,0,0,1,0.00
2013-9-12,85.0,73.4,65.8,74.9,68.9,61.2,95,86,61,29.99,29.73,0,0,3,0.00
2013-9-13,65.9,62.5,59.4,63.0,59.9,57.1,95,91,85,29.75,29.70,0,0,0,0.00
2013-12-4,52.7,48.5,46.3,47.0,44.8,43.0,96,87,74,30.09,30.02,6,2,0,0.00
2013-12-5,59.5,51.6,48.3,59.0,47.8,-99.9,99,97,92,30.07,29.92,5,1,0,0.01
2013-12-6,58.2,38.3,31.6,58.0,31.6,-99.9,99,95,84,30.16,29.88,13,2,0,0.20
2013-12-7,31.6,28.7,22.8,31.0,25.7,18.0,97,89,77,30.56,30.15,10,2,0,0.00
2013-12-8,26.0,21.0,19.0,25.0,18.2,15.0,95,88,78,30.59,30.36,5,1,0,0.00
2013-12-9,35.6,30.3,25.9,35.0,29.4,25.0,97,96,87,30.35,30.07,11,1,0,0.22
2013-12-10,32.2,27.2,22.5,29.0,23.5,15.0,96,86,70,30.22,30.00,14,3,0,0.00
2013-12-11,29.1,24.0,18.6,19.0,15.4,13.0,78,70,60,30.41,30.21,6,2,0,0.01
2013-12-12,28.1,19.5,15.2,20.0,9.4,5.0,86,66,49,30.37,30.18,11,3,0,0.00
2013-12-13,33.7,26.1,17.9,20.0,14.2,9.0,67,61,56,30.28,30.16,13,2,0,0.03
2013-12-14,32.4,29.4,26.1,31.0,25.4,19.0,96,86,57,30.28,29.69,8,1,0,0.00
2013-12-15,33.1,29.4,25.8,32.0,26.7,20.0,97,90,77,29.87,29.59,11,4,0,0.24
2013-12-16,28.2,24.7,20.6,24.0,19.9,15.0,92,82,78,30.14,29.87,8,2,0,0.00
2013-12-17,32.8,27.9,24.3,31.0,25.9,22.0,95,92,84,30.11,29.90,8,1,0,0.02
2013-12-18,29.6,27.0,24.0,26.0,21.4,18.0,93,79,74,30.16,29.95,12,3,0,0.00
2013-12-19,46.7,37.9,25.1,33.0,26.6,20.0,80,65,54,30.15,30.05,5,1,0,0.31
2013-12-20,48.6,46.2,42.6,37.3,34.0,30.0,67,62,52,30.07,29.92,3,1,5,0.02
2013-12-21,60.3,52.5,45.4,56.7,46.5,37.0,92,80,66,29.95,29.82,5,1,12,0.00
2013-12-22,62.6,58.3,54.9,61.1,57.2,54.0,98,96,92,29.92,29.73,7,3,13,0.32
2013-12-23,55.4,45.3,28.9,55.0,42.9,23.7,99,91,78,30.15,29.82,10,3,20,0.46
2013-12-24,31.0,24.2,14.8,23.9,17.3,7.1,91,75,59,30.40,30.11,9,3,22,0.00
2013-12-25,24.0,17.9,11.0,14.0,10.5,6.5,83,73,63,30.53,30.33,8,1,14,0.00
2013-12-26,35.6,27.2,19.8,27.0,18.9,13.0,83,71,59,30.33,30.20,14,1,17,0.00
2013-12-27,43.7,33.6,26.0,23.6,20.2,17.7,76,59,40,30.36,30.27,4,1,11,0.00
2013-12-28,51.2,41.5,33.4,32.6,25.8,21.5,63,54,46,30.28,30.05,5,1,9,0.00
2013-12-29,47.1,41.1,38.1,40.3,36.2,25.5,97,85,43,30.06,29.49,7,2,11,1.04
2013-12-30,40.3,32.1,22.6,38.2,27.8,17.0,94,84,77,30.11,29.75,7,3,15,0.00
2013-12-31,32.2,25.7,21.9,26.1,19.0,15.0,86,76,62,30.27,30.05,10,2,19,0.00
2014-1-1,40.6,29.3,21.5,28.0,21.4,15.0,84,73,59,30.36,30.09,5,1,0,0.00
2014-1-2,30.9,26.4,20.8,26.0,24.7,19.0,95,93,82,30.08,29.59,7,2,0,0.00